Home   Weather   Abu Dhabi   Past weeks
Flag for United Arab Emirates

Past Weather in Abu Dhabi, Abu Dhabi, United Arab Emirates — Yesterday and Last 2 Weeks

Now
70 °F

Sunny.


Feels Like: 70 °F
Forecast: 70 / 65 °F
Wind: 6 mph from North

Location: Abu Dhabi Bateen Airport

Current Time: Feb 19, 2019 at 1:08:28 pm

Latest Report: Feb 19, 2019 at 12:00 pm


Visibility: 10 mi

Pressure: 29.86 "Hg

Humidity: 60%

Dew Point: 55 °F

Location of Abu DhabiLocation

Past Weather in Abu Dhabi — Graph

°F

Abu Dhabi Temperature Yesterday

Maximum temperature yesterday: 73 °F (at 12:00 pm)
Minimum temperature yesterday: 64 °F (at 5:00 am)
Average temperature yesterday: 69 °F

High & Low Weather Summary for the Past Weeks

 TemperatureHumidityPressure
High86 °F (Feb 16, 3:00 pm)83% (Feb 14, 8:00 am)30.21 "Hg (Feb 14, 8:00 am)
Low57 °F (Feb 7, 6:00 am)15% (Feb 9, 4:00 pm)29.83 "Hg (Feb 12, 3:00 am)
Average70 °F54%30.05 "Hg
* Reported Feb 4 12:00 pm — Feb 19 12:00 pm, Abu Dhabi. Weather by CustomWeather, © 2019

Note: Actual official high and low records may vary slightly from our data, if they occured in-between our weather recording intervals... More about our weather records

Advertising

Abu Dhabi Weather History for the Previous 24 Hours

Scroll right to see more
 ConditionsComfort  
Time TempWeatherWind HumidityBarometerVisibility
12:00 pm
Tue, Feb 19
70 °FSunny.6 mph60%29.86 "Hg10 mi
11:00 am68 °FPassing clouds.6 mph64%29.89 "HgN/A
10:00 am66 °FPassing clouds.5 mph64%29.89 "HgN/A
9:00 am64 °FPassing clouds.5 mph68%29.89 "HgN/A
8:00 am64 °FSunny.6 mph68%29.86 "Hg10 mi
7:00 am64 °FSunny.5 mph73%29.86 "Hg10 mi
6:00 am66 °FClear.2 mph60%29.83 "Hg10 mi
5:00 am66 °FClear.2 mph56%29.83 "Hg10 mi
4:00 am68 °FClear.5 mph53%29.83 "Hg10 mi
3:00 am68 °FClear.5 mph53%29.83 "Hg10 mi
2:00 am68 °FPassing clouds.5 mph53%29.86 "HgN/A
1:00 am68 °FPassing clouds.5 mph53%29.86 "HgN/A
12:00 am68 °FClear.6 mph53%29.86 "Hg10 mi
11:00 pm
Mon, Feb 18
68 °FClear.7 mph53%29.89 "Hg10 mi
10:00 pm68 °FPassing clouds.7 mph53%29.89 "HgN/A
9:00 pm68 °FClear.8 mph49%29.89 "Hg10 mi
8:00 pm68 °FClear.8 mph49%29.89 "Hg10 mi
7:00 pm68 °FClear.8 mph49%29.86 "Hg10 mi
6:00 pm70 °FSunny.12 mph46%29.89 "Hg10 mi
5:00 pm70 °FSunny.15 mph46%29.86 "Hg10 mi
4:00 pm72 °FSunny.16 mph44%29.89 "Hg10 mi
3:00 pm72 °FSunny.17 mph44%29.89 "Hg10 mi
2:00 pm72 °FPassing clouds.16 mph38%29.92 "HgN/A
1:00 pm73 °FPassing clouds.16 mph41%29.95 "HgN/A
Weather by CustomWeather, © 2019

See weather overview